Torna al catalogo

STARLINK-11272

AttivoComunicazioniVLEO
NORAD 60723·PAYLOAD·🇺🇸 United States

Lanciato Aug 28, 2024 da Cape Canaveral Space Force Station

Loading…

Prossimi Passaggi (prossime 24 ore)

TLE

AggiornatoSource: CelesTrak SupGP

Epoca: Sep 15, 2026, 02:38 UTC

1 60723C 24152D   26258.11020833  .00030233  00000+0  24876-3 0  2581
2 60723  53.1572 262.5700 0001197  90.3247 301.0067 15.69720984    17

Traccia STARLINK-11272 in tempo reale con AllMySat

Download on the App Store